Location: ??????
(56.0120°N, 39.1740°E)
Time: 21:47:27
(UTC+00:00)

Cosmos 2221 Rocket - Pass Details

Date: 14 April 2026
Orbit: 615 x 642 km, 82.5° (Epoch: 11 May)

Event Time Altitude Azimuth Distance (km) Brightness Sun altitude
Rises 19:08:03 0° 345° (NNW) 2,901 8.3 -18.6°
Reaches altitude 10° 19:10:18 10° 342° (NNW) 1,991 7.3 -18.8°
Maximum altitude 19:14:37 59° 264° (W) 716 3.9 -19.1°
Enters shadow 19:16:31 31° 197° (SSW) 1,081 4.4 -19.3°
